Regional Weather Roundup
Issued by NWS Charleston, SC

Current Version | Previous Version | Text Only | Print | Product List | Glossary On
Versions: 1 2 3 4 5 6 7 8 9 10 11 12 13 14 15 16 17 18 19 20 21 22 23 24 25 26 27 28 29 30 31 32 33 34 35 36 37 38 39 40 41 42 43 44 45 46 47 48 49 50
000 ASUS42 KCHS 241528 RWRCHS REGIONAL WEATHER ROUNDUP NATIONAL WEATHER SERVICE CHARLESTON SC 1100 AM EDT SUN JUL 24 2016 NOTE: "FAIR" INDICATES FEW OR NO CLOUDS BELOW 12,000 FEET WITH NO SIGNIFICANT WEATHER AND/OR OBSTRUCTIONS TO VISIBILITY. NOT ALL STATIONS ARE QUALITY CONTROLLED. USE DATA WITH CAUTION... ESPECIALLY DEWPOINT OBSERVATIONS. SCZ027-030-031-034>040-042>050-241600- ...SOUTHEAST SOUTH CAROLINA... CITY SKY/WX TMP DP RH WIND PRES REMARKS N CHARLESTON PTSUNNY 90 75 61 VRB5 30.04R HX 100 WATERFRONT PRK N/A 87 76 69 SW5 30.02S HX 97 MOUNT PLEASANT FAIR 88 75 66 CALM 30.05R HX 97 JOHNS ISLAND FAIR 90 79 70 S7 30.05R HX 105 PINOPOLIS N/A 84 75 74 VRB2 29.97S HX 92 MONCKS CORNER FAIR 86 72 62 CALM 30.05R HX 92 SUMMERVILLE NOT AVBL BEAUFORT MCAS SUNNY 91 75 59 SW7 30.05S HX 101 BEAUFORT ARPT FAIR 88 75 66 SW6 30.05S HX 97 HILTON HEAD IS MOSUNNY 90 77 66 S5 30.06S HX 102 WALTERBORO SUNNY 91 72 52 CALM 30.06R HX 98 ALLENDALE FAIR 90 73 58 VRB5 30.05R HX 98 ...SOUTHERN MIDLANDS AND PEE DEE... CITY SKY/WX TMP DP RH WIND PRES REMARKS GEORGETOWN FAIR 88 75 66 W7 30.05S HX 97 KINGSTREE FAIR 88 72 58 W5 30.05R HX 94 ORANGEBURG CLOUDY 88 71 57 W9 30.05S HX 94 BARNWELL NOT AVBL AIKEN FAIR 90 72 55 SW5 30.09S HX 96 MANNING FAIR 86 72 62 SW6 30.04S HX 92 COLUMBIA MOSUNNY 93 70 46 NW6 30.04R HX 99 SUMTER MOSUNNY 88 72 60 SW5 30.03R HAZE HX 94 FLORENCE SUNNY 88 75 65 S5 30.04S HX 97 MYRTLE BEACH SUNNY 90 72 55 CALM 30.05F HX 96 N MYRTLE BEACH SUNNY 88 77 69 S8 30.04S HX 100 $$ GAZ063-065-086>088-099>101-113>116-118-119-134>141-150-241600- ...SOUTHEAST GEORGIA... CITY SKY/WX TMP DP RH WIND PRES REMARKS SAVANNAH ARPT MOSUNNY 89 73 59 W6 30.06R HX 97 HUNTER AAF SUNNY 89 79 71 VRB7 30.03S HX 104 FORT STEWART SUNNY 89 73 59 VRB2 30.04R HX 98 STATESBORO SUNNY 90 76 65 NW6 30.06S HX 101 SYLVANIA NOT AVBL CLAXTON FAIR 91 77 63 SW6 30.06S HX 103 ...CSRA...CENTRAL AND FAR SOUTHEAST GEORGIA... CITY SKY/WX TMP DP RH WIND PRES REMARKS THOMSON MOSUNNY 92 76 61 SW3 30.10S HX 104 AUGUSTA-BUSH SUNNY 91 72 53 CALM 30.04R HX 98 AUGUSTA-DANIEL SUNNY 90 72 55 S6 30.06S HX 97 SWAINSBORO FAIR 90 70 51 CALM 30.07S HX 95 VIDALIA SUNNY 91 72 52 SW3 30.07S HX 98 EASTMAN FAIR 91 64 40 NW5 30.09S HX 91 HAZLEHURST FAIR 92 77 62 CALM 30.06S HX 105 ALMA SUNNY 88 74 63 VRB3 30.07S HX 96 WAYCROSS SUNNY 92 78 63 W6 30.06F HX 107 JESUP FAIR 90 79 70 CALM 30.06S HX 105 BAXLEY FAIR 90 79 70 W3 30.06S HX 105 BRUNSWICK MOSUNNY 90 77 66 S5 30.07S HX 102 SAINT SIMONS SUNNY 87 72 60 SW7 30.06S HX 93 $$ SCZ027-028-034-036>038-045-046-048>050-GAZ119-141-241600- ...LAKE AND SUPPLEMENTAL COASTAL OBSERVATIONS... STATION/POSITION TIME TEMP WIND PRES WAVE SWELL AIR SEA DIR/SP/G HT/PER HT/PER/DIR (UTC) (F) (DEG/KT/KT) (MB) (FT/S) (FT/S/D) WINYAH BAY 1400 81 260/ 5 1016.0F LAKE MURRAY 1400 85 270/ 3/ 3 1016.6S ACE BASIN NERRS 1400 87 240/ 2 1018.0R FORT PULASKI 1500 87 87 210/ 6/ 9 1018.2R SAPELO ISLAND 1500 88 250/ 4 1018.0S $$ ANZ835-935-AMZ111-154-330-350-352-354-370-450-454-472-241600- ...C-MAN AND BUOY OBSERVATIONS... STATION/POSITION TIME TEMP WIND PRES WAVE SWELL AIR SEA DIR/SP/G HT/PER HT/PER/DIR (UTC) (F) (DEG/KT/KT) (MB) (FT/S) (FT/S/D) BUOY 41004 1450 85 86 220/ 12/ 12 1017.0R 3/ 8 2/110/ 8 BUOY 41008 1450 84 86 210/ 12/ 14 1017.6R 2/ 9 2/ 80/ 9 FOLLY BEACH CMAN 1500 85 220/ 13/ 15 1017.8R CAPERS NEARSHORE 1508 84 84 240/ 10/ 14 1017.4R FRIPP NEARSHORE 1508 85 86 230/ 10/ 12 1017.2R STATION/POSITION TIME TEMP WIND PRES WAVE SWELL AIR SEA DIR/SP/G HT/PER HT/PER/DIR (UTC) (F) (DEG/KT/KT) (MB) (FT/S) (FT/S/D) 5E ST. MARYS GA 1501 87 N/A 2/ 9 FRYING PAN BUOY 1500 85 85 220/ 8/ 10 1017.5R BUOY 41025 1450 84 86 240/ 10/ 12 1017.2R 3/ 9 2/130/ 9 CAPE LOOKOUT NC 1500 86 230/ 8/ 11 1017.1R BUOY 41002 1450 83 85 110/ 2/ 4 1018.7R 2/ 8 2/110/ 8 BUOY 41010 1420 85 87 80/ 2/ 4 1018.6R ST AUGUSTINE FL 1500 83 85 110/ 5/ 6 1019.0F $$

USA.gov is the U.S. government's official web portal to all federal, state and local government web resources and services.